星链-5720 (STARLINK-5720 )

导读

STARLINK-5720是美国SpaceX公司星链星座中的一颗低轨通信卫星,于2023年2月12日发射入轨。星链星座旨在为全球提供宽带互联网服务,尤其覆盖偏远地区、海洋等传统基础设施难以抵达的区域,这颗卫星采用平板设计,搭载Ku和Ka波段通信载荷,配备氪工质霍尔推进器,具备自主避撞能力,寿命结束后会主动离轨再入大气层烧毁。

Basic Information
目录编号:
55619
目录名称:
STARLINK-5720
国际标识:
2023-020BC
轨道中心:
EARTH
卫星名称:
星链-5720
卫星全名:
星链-5720 (STARLINK-5720 )
卫星状态:
在轨 (已飞行1308 天)
发射日期:
2023-02-12 UTC
国别 :
美国 (US)
星等 :
--
This satellite is enrolled in the Space Conjunction Data Service (SCDS) and the current flight risk assessment level is: High Risk
Orbit Information
数据来源 国际轨道数据 AOE轨道数据
星历时间 2026-09-12T09:30:35+0800
17小时前
查看轨道信息
2026-09-10T08:00:00+0800
2天前
查看轨道信息
半长轴 6861.205km 6861.179km
偏心率 0.0001053 0.0002899
轨道倾角 43.005° 43.005°
近地点辐角 268.790° 314.700°
升交点赤经 21.605° 33.261°
平近点角 91.283° 207.577°
近地点 482.345km 481.052km
远地点 483.791km 485.032km
周期 94.267分钟 94.267分钟
每日圈数 15.275737 15.275827
Detailed Information
固有亮度:
5
最大亮度:
2.5
卫星平台:
Starlink v1.5
覆盖范围:
全球
运营商:
太空探索技术公司
运营商所在国:
美国
制造商(研发单位):
太空探索技术公司
制造商所在国:
美国
使用方式:
暂无
Satellite Introduction
星链(Starlink)计划是由太空探索技术公司(SpaceX)提出的一个巨型低轨卫星互联网星座项目,计划在2019年至2024年间在太空搭建由约1.2万颗卫星组成的“星链”网络,其中1584颗将部署在地球上空550千米处的近地轨道,并从2020年开始工作。该卫星仍在工作。
2D Orbit Map
3D Orbit Map
Orbit Altitude Analysis Chart
Orbit Inclination Analysis Chart
Orbit Comprehensive Analysis Chart
View Comprehensive Chart
Conjunction Data List
Event ID Objects TCA Miss Dist (km) Collision Risk Probability Collision Risk Index (CRI) Action
CDM_260915-025805-561906-379221
2026-09-15T
02:58:13+0000
0.498 km
远距离
1.09777E-4 高风险 0.76
CDM_260907-024405-561906-379223
2026-09-07T
02:44:04+0000
2.137 km
极远距离
1.275547E-6 低风险 0.37
CDM_260915-012405-561906-379221
2026-09-15T
01:24:04+0000
2.271 km
极远距离
1.124601E-6 低风险 0.36
Miss Distance Evolution Trend with All Objects
Collision Probability Evolution Trend with All Objects